StationID,Date,MaxTemp,MinTemp,Precipitation,Snowfall,SnowDepth
"USC00505896","1965-01-15",,,,,533.00
"USC00505896","1965-01-16",24.08,12.02,0.00,0.00,
"USC00505896","1965-01-17",46.04,19.04,0.00,0.00,406.00
"USC00505896","1965-01-18",46.94,23.00,61.00,0.00,356.00
"USC00505896","1965-01-19",44.96,28.04,0.00,0.00,356.00
"USC00505896","1965-01-20",32.00,19.94,0.00,0.00,356.00
"USC00505896","1965-01-21",28.94,19.04,0.00,0.00,356.00
"USC00505896","1965-01-22",26.06,12.92,0.00,0.00,356.00
"USC00505896","1965-01-23",24.98,14.00,0.00,0.00,356.00
"USC00505896","1965-01-24",19.04,3.02,0.00,0.00,356.00
"USC00505896","1965-01-25",19.94,-4.00,0.00,0.00,356.00
"USC00505896","1965-01-26",10.04,-4.00,0.00,0.00,356.00
"USC00505896","1965-01-27",10.04,-7.96,0.00,0.00,356.00
"USC00505896","1965-01-28",12.02,-11.92,0.00,0.00,356.00
"USC00505896","1965-01-29",6.08,-7.06,0.00,0.00,356.00
"USC00505896","1965-01-30",15.98,1.04,0.00,0.00,356.00
"USC00505896","1965-01-31",15.08,1.94,0.00,0.00,356.00
"USC00505896","1965-02-01",17.96,12.02,0.00,0.00,356.00
"USC00505896","1965-02-02",19.04,5.00,,8.00,
"USC00505896","1965-02-03",15.08,-0.94,0.00,0.00,
"USC00505896","1965-02-04",15.08,-5.08,0.00,0.00,
"USC00505896","1965-02-05",5.00,-11.02,0.00,0.00,
"USC00505896","1965-02-06",10.04,3.92,,38.00,381.00
"USC00505896","1965-02-07",15.98,8.06,,30.00,406.00
"USC00505896","1965-02-08",12.92,3.92,0.00,0.00,406.00
"USC00505896","1965-02-09",39.02,12.02,0.00,0.00,406.00
"USC00505896","1965-02-10",42.08,21.02,,25.00,381.00
"USC00505896","1965-02-11",33.98,12.02,0.00,0.00,381.00
"USC00505896","1965-02-12",30.02,21.02,,94.00,457.00
"USC00505896","1965-02-13",28.04,12.02,,89.00,559.00
"USC00505896","1965-02-14",15.98,6.08,,20.00,584.00
"USC00505896","1965-02-15",15.08,6.08,,30.00,610.00
"USC00505896","1965-02-16",17.06,-5.08,0.00,0.00,610.00
"USC00505896","1965-02-17",10.04,-18.04,,13.00,635.00
"USC00505896","1965-02-18",12.02,-11.02,0.00,0.00,584.00
"USC00505896","1965-02-19",17.06,-4.00,0.00,0.00,508.00
"USC00505896","1965-02-20",15.08,-9.04,0.00,0.00,483.00
"USC00505896","1965-02-21",10.04,-16.06,0.00,0.00,483.00
"USC00505896","1965-02-22",19.94,-2.02,0.00,0.00,457.00
"USC00505896","1965-02-23",24.98,8.96,0.00,0.00,432.00
"USC00505896","1965-02-24",26.96,8.06,0.00,0.00,432.00
"USC00505896","1965-02-25",26.06,6.98,0.00,0.00,432.00
"USC00505896","1965-02-26",23.00,3.02,0.00,0.00,432.00
"USC00505896","1965-02-27",19.94,10.94,0.00,0.00,432.00
"USC00505896","1965-02-28",19.94,-5.98,0.00,0.00,432.00
"USC00505896","1965-03-01",33.08,12.02,,10.00,432.00
"USC00505896","1965-03-02",37.04,21.02,,25.00,457.00
"USC00505896","1965-03-03",44.06,21.92,0.00,0.00,432.00
"USC00505896","1965-03-04",42.98,24.08,0.00,0.00,
"USC00505896","1965-03-05",46.04,23.00,0.00,0.00,406.00
"USC00505896","1965-03-06",44.96,28.04,0.00,0.00,
"USC00505896","1965-03-07",42.98,26.06,0.00,0.00,
"USC00505896","1965-03-08",55.04,30.92,0.00,0.00,356.00
"USC00505896","1965-03-09",51.98,30.92,0.00,0.00,254.00
"USC00505896","1965-03-10",44.06,33.08,41.00,0.00,229.00
"USC00505896","1965-03-11",48.02,28.04,48.00,0.00,203.00
"USC00505896","1965-03-12",46.94,30.02,0.00,0.00,203.00
"USC00505896","1965-03-13",39.02,23.00,0.00,0.00,178.00
"USC00505896","1965-03-14",33.98,12.02,0.00,0.00,178.00
"USC00505896","1965-03-15",30.02,6.98,0.00,0.00,178.00
"USC00505896","1965-03-16",28.04,8.06,0.00,0.00,178.00
"USC00505896","1965-03-17",33.08,21.02,0.00,0.00,178.00
"USC00505896","1965-03-18",33.08,12.92,0.00,0.00,178.00
"USC00505896","1965-03-19",39.02,21.02,51.00,10.00,
"USC00505896","1965-03-20",42.98,32.00,102.00,0.00,
"USC00505896","1965-03-21",50.00,33.08,0.00,0.00,
"USC00505896","1965-03-22",50.00,35.06,0.00,0.00,
"USC00505896","1965-03-23",46.04,32.00,0.00,0.00,
"USC00505896","1965-03-24",44.96,32.00,28.00,0.00,0.00
"USC00505896","1965-03-25",41.00,35.06,76.00,0.00,0.00
"USC00505896","1965-03-26",41.00,35.06,25.00,0.00,0.00
"USC00505896","1965-03-27",41.00,35.06,152.00,0.00,0.00
"USC00505896","1965-03-28",46.04,33.08,76.00,0.00,0.00
"USC00505896","1965-03-29",46.04,28.94,25.00,0.00,0.00
"USC00505896","1965-03-30",42.98,30.02,0.00,0.00,0.00
"USC00505896","1965-03-31",42.98,28.94,0.00,0.00,0.00
"USC00505896","1965-04-01",41.00,28.04,0.00,0.00,0.00
"USC00505896","1965-04-02",42.98,33.08,0.00,0.00,0.00
"USC00505896","1965-04-03",44.96,35.06,0.00,0.00,0.00
"USC00505896","1965-04-04",44.96,30.02,0.00,0.00,0.00
"USC00505896","1965-04-05",42.98,32.00,0.00,0.00,0.00
"USC00505896","1965-04-06",42.08,32.00,0.00,0.00,0.00
"USC00505896","1965-04-07",42.08,17.96,0.00,0.00,0.00
"USC00505896","1965-04-08",39.92,30.02,0.00,0.00,0.00
"USC00505896","1965-04-09",44.96,30.02,13.00,10.00,0.00
"USC00505896","1965-04-10",44.96,24.08,0.00,0.00,0.00
"USC00505896","1965-04-11",41.00,23.00,38.00,64.00,76.00
"USC00505896","1965-04-12",39.92,19.04,0.00,0.00,51.00
"USC00505896","1965-04-13",46.94,17.96,0.00,0.00,0.00
"USC00505896","1965-04-14",51.98,24.08,0.00,0.00,0.00
"USC00505896","1965-04-15",60.98,28.94,0.00,0.00,0.00
"USC00505896","1965-04-16",60.98,30.92,0.00,0.00,0.00
"USC00505896","1965-04-17",62.06,26.96,0.00,0.00,0.00
"USC00505896","1965-04-18",68.00,35.06,0.00,0.00,0.00
"USC00505896","1965-04-19",60.98,28.04,0.00,0.00,0.00
"USC00505896","1965-04-20",55.04,24.08,8.00,38.00,0.00
"USC00505896","1965-04-21",42.08,23.00,0.00,0.00,0.00
"USC00505896","1965-04-22",41.00,17.06,0.00,0.00,0.00
"USC00505896","1965-04-23",44.06,24.98,0.00,0.00,0.00
"USC00505896","1965-04-24",48.02,30.92,0.00,0.00,0.00
"USC00505896","1965-04-25",46.04,32.00,0.00,0.00,0.00
"USC00505896","1965-04-26",48.02,35.06,13.00,0.00,0.00
"USC00505896","1965-04-27",51.08,28.94,0.00,0.00,0.00
"USC00505896","1965-04-28",51.98,32.00,0.00,0.00,0.00
"USC00505896","1965-04-29",50.00,30.92,0.00,0.00,0.00
"USC00505896","1965-04-30",42.08,30.92,5.00,0.00,0.00
"USC00505896","1965-05-01",44.96,35.06,23.00,0.00,0.00
"USC00505896","1965-05-02",51.08,33.08,0.00,0.00,0.00
"USC00505896","1965-05-03",44.96,26.06,91.00,64.00,51.00
"USC00505896","1965-05-04",37.04,19.04,13.00,25.00,0.00
"USC00505896","1965-05-05",39.92,21.92,10.00,20.00,0.00
"USC00505896","1965-05-06",46.04,23.00,0.00,0.00,0.00
"USC00505896","1965-05-07",48.92,30.92,0.00,0.00,0.00
"USC00505896","1965-05-08",48.02,28.04,0.00,0.00,0.00
"USC00505896","1965-05-09",48.02,24.98,0.00,0.00,0.00
"USC00505896","1965-05-10",55.04,39.02,0.00,0.00,0.00
"USC00505896","1965-05-11",46.94,24.98,0.00,0.00,0.00
"USC00505896","1965-05-12",51.08,33.08,0.00,0.00,0.00
"USC00505896","1965-05-13",50.00,28.04,0.00,0.00,0.00
"USC00505896","1965-05-14",46.94,33.08,10.00,0.00,0.00
"USC00505896","1965-05-15",53.96,28.94,0.00,0.00,0.00
"USC00505896","1965-05-16",57.02,30.92,0.00,0.00,0.00
"USC00505896","1965-05-17",60.98,35.06,0.00,0.00,0.00
"USC00505896","1965-05-18",59.00,35.96,0.00,0.00,0.00
"USC00505896","1965-05-19",55.04,33.08,0.00,0.00,0.00
"USC00505896","1965-05-20",57.92,39.92,0.00,0.00,0.00
"USC00505896","1965-05-21",51.98,41.00,0.00,0.00,0.00
"USC00505896","1965-05-22",51.98,41.00,0.00,0.00,0.00
"USC00505896","1965-05-23",51.98,33.98,0.00,0.00,0.00
"USC00505896","1965-05-24",59.00,39.92,0.00,0.00,0.00
"USC00505896","1965-05-25",60.08,39.92,10.00,0.00,0.00
"USC00505896","1965-05-26",60.98,44.06,0.00,0.00,0.00
"USC00505896","1965-05-27",60.98,44.06,0.00,0.00,0.00
"USC00505896","1965-05-28",60.98,46.94,0.00,0.00,0.00
"USC00505896","1965-05-29",60.98,42.98,0.00,0.00,0.00
"USC00505896","1965-05-30",55.94,42.98,0.00,0.00,0.00
"USC00505896","1965-05-31",51.08,42.08,13.00,0.00,0.00
"USC00505896","1965-06-01",59.00,37.94,66.00,0.00,0.00
"USC00505896","1965-06-02",51.98,41.00,0.00,0.00,0.00
"USC00505896","1965-06-03",55.94,41.00,0.00,0.00,0.00
"USC00505896","1965-06-04",57.92,41.00,0.00,0.00,0.00
"USC00505896","1965-06-05",57.92,33.98,0.00,0.00,0.00
"USC00505896","1965-06-06",50.00,39.92,10.00,0.00,0.00
"USC00505896","1965-06-07",53.06,39.92,0.00,0.00,0.00
"USC00505896","1965-06-08",60.08,41.00,0.00,0.00,0.00
"USC00505896","1965-06-09",57.92,44.06,0.00,0.00,0.00
"USC00505896","1965-06-10",62.06,39.92,0.00,0.00,0.00
"USC00505896","1965-06-11",57.02,39.92,10.00,0.00,0.00
"USC00505896","1965-06-12",55.94,44.06,0.00,0.00,0.00
"USC00505896","1965-06-13",55.04,42.08,38.00,0.00,0.00
"USC00505896","1965-06-14",60.08,37.94,0.00,0.00,0.00
"USC00505896","1965-06-15",64.04,44.06,13.00,0.00,0.00
"USC00505896","1965-06-16",60.08,42.08,0.00,0.00,0.00
"USC00505896","1965-06-17",60.08,44.06,0.00,0.00,0.00
"USC00505896","1965-06-18",60.08,46.04,0.00,0.00,0.00
"USC00505896","1965-06-19",57.92,39.92,5.00,0.00,0.00
"USC00505896","1965-06-20",59.00,44.96,185.00,0.00,0.00
"USC00505896","1965-06-21",60.08,42.08,15.00,0.00,0.00
"USC00505896","1965-06-22",60.08,44.96,13.00,0.00,0.00
"USC00505896","1965-06-23",60.98,39.02,0.00,0.00,0.00
"USC00505896","1965-06-24",59.00,48.92,0.00,0.00,0.00
"USC00505896","1965-06-25",60.08,48.92,0.00,0.00,0.00
"USC00505896","1965-06-26",60.08,44.96,0.00,0.00,0.00
"USC00505896","1965-06-27",60.98,44.96,0.00,0.00,0.00
"USC00505896","1965-06-28",64.04,44.06,0.00,0.00,0.00
"USC00505896","1965-06-29",60.98,48.92,0.00,0.00,0.00
"USC00505896","1965-06-30",60.98,44.96,3.00,0.00,0.00
"USC00505896","1965-07-01",62.06,46.94,86.00,0.00,0.00
"USC00505896","1965-07-02",60.08,39.92,3.00,0.00,0.00
"USC00505896","1965-07-03",62.96,44.96,0.00,0.00,0.00
"USC00505896","1965-07-04",64.94,46.94,0.00,0.00,0.00
"USC00505896","1965-07-05",60.08,42.98,0.00,0.00,0.00
"USC00505896","1965-07-06",68.00,42.08,0.00,0.00,0.00
"USC00505896","1965-07-07",75.02,44.96,0.00,0.00,0.00
"USC00505896","1965-07-08",71.06,48.02,0.00,0.00,0.00
"USC00505896","1965-07-09",60.98,50.00,43.00,0.00,0.00
"USC00505896","1965-07-10",73.04,53.96,0.00,0.00,0.00
"USC00505896","1965-07-11",69.08,55.94,5.00,0.00,0.00
"USC00505896","1965-07-12",68.00,53.06,30.00,0.00,0.00
"USC00505896","1965-07-13",66.02,55.04,25.00,0.00,0.00
"USC00505896","1965-07-14",66.92,51.08,10.00,0.00,0.00
"USC00505896","1965-07-15",62.96,46.04,0.00,0.00,0.00
"USC00505896","1965-07-16",62.96,50.00,0.00,0.00,0.00
"USC00505896","1965-07-17",57.92,48.92,13.00,0.00,0.00
"USC00505896","1965-07-18",57.92,50.00,140.00,0.00,0.00
"USC00505896","1965-07-19",62.96,44.96,89.00,0.00,0.00
"USC00505896","1965-07-20",60.08,48.02,0.00,0.00,0.00
"USC00505896","1965-07-21",60.98,46.94,3.00,0.00,0.00
"USC00505896","1965-07-22",62.06,51.08,0.00,0.00,0.00
"USC00505896","1965-07-23",62.06,48.02,0.00,0.00,0.00
"USC00505896","1965-07-24",62.06,46.04,5.00,0.00,0.00
"USC00505896","1965-07-25",60.98,41.00,25.00,0.00,0.00
"USC00505896","1965-07-26",75.02,42.08,18.00,0.00,0.00
"USC00505896","1965-07-27",73.94,55.04,0.00,0.00,0.00
"USC00505896","1965-07-28",73.94,48.02,0.00,0.00,0.00
"USC00505896","1965-07-29",73.04,53.06,0.00,0.00,0.00
"USC00505896","1965-07-30",77.00,51.08,0.00,0.00,0.00
"USC00505896","1965-07-31",69.98,53.96,0.00,0.00,0.00
"USC00505896","1965-08-01",71.96,48.92,0.00,0.00,0.00
"USC00505896","1965-08-02",69.98,46.94,10.00,0.00,0.00
"USC00505896","1965-08-03",55.94,46.94,28.00,0.00,0.00
"USC00505896","1965-08-04",57.02,48.02,0.00,0.00,0.00
"USC00505896","1965-08-05",64.94,48.02,0.00,0.00,0.00
"USC00505896","1965-08-06",62.96,51.08,0.00,0.00,0.00
"USC00505896","1965-08-07",71.96,48.02,0.00,0.00,0.00
"USC00505896","1965-08-08",71.96,48.92,0.00,0.00,0.00
"USC00505896","1965-08-09",60.08,51.98,203.00,0.00,0.00
"USC00505896","1965-08-10",57.92,48.02,28.00,0.00,0.00
"USC00505896","1965-08-11",66.02,48.02,8.00,0.00,0.00
"USC00505896","1965-08-12",64.04,48.02,0.00,0.00,0.00
"USC00505896","1965-08-13",57.92,50.00,64.00,0.00,0.00
"USC00505896","1965-08-14",59.00,50.00,152.00,0.00,0.00
"USC00505896","1965-08-15",62.96,50.00,10.00,0.00,0.00
"USC00505896","1965-08-16",60.98,51.98,64.00,0.00,0.00
"USC00505896","1965-08-17",64.94,48.02,0.00,0.00,0.00
"USC00505896","1965-08-18",68.00,50.00,0.00,0.00,0.00
"USC00505896","1965-08-19",68.00,46.04,0.00,0.00,0.00
"USC00505896","1965-08-20",68.00,44.96,0.00,0.00,0.00
"USC00505896","1965-08-21",59.00,46.94,0.00,0.00,0.00
"USC00505896","1965-08-22",57.92,44.96,0.00,0.00,0.00
"USC00505896","1965-08-23",57.02,46.04,99.00,0.00,0.00
"USC00505896","1965-08-24",59.00,44.06,3.00,0.00,0.00
"USC00505896","1965-08-25",62.06,35.06,0.00,0.00,0.00
"USC00505896","1965-08-26",60.08,46.04,0.00,0.00,0.00
"USC00505896","1965-08-27",62.96,42.08,0.00,0.00,0.00
"USC00505896","1965-08-28",62.96,44.96,0.00,0.00,0.00
"USC00505896","1965-08-29",62.96,46.94,0.00,0.00,0.00
"USC00505896","1965-08-30",64.04,32.00,0.00,0.00,0.00
"USC00505896","1965-08-31",64.04,46.94,0.00,0.00,0.00
"USC00505896","1965-09-01",62.06,46.94,30.00,0.00,0.00
"USC00505896","1965-09-02",64.04,44.06,0.00,0.00,0.00
"USC00505896","1965-09-03",60.08,48.02,0.00,0.00,0.00
"USC00505896","1965-09-04",60.98,51.08,20.00,0.00,0.00
"USC00505896","1965-09-05",60.08,55.04,36.00,0.00,0.00
"USC00505896","1965-09-06",66.92,53.96,15.00,0.00,0.00
"USC00505896","1965-09-07",60.98,41.00,41.00,0.00,0.00
"USC00505896","1965-09-08",55.94,50.00,51.00,0.00,0.00
"USC00505896","1965-09-09",69.98,50.00,3.00,0.00,0.00
"USC00505896","1965-09-10",69.98,48.02,0.00,0.00,0.00
"USC00505896","1965-09-11",64.04,51.98,13.00,0.00,0.00
"USC00505896","1965-09-12",62.06,48.02,0.00,0.00,0.00
"USC00505896","1965-09-13",62.96,48.02,0.00,0.00,0.00
"USC00505896","1965-09-14",55.94,48.02,0.00,0.00,0.00
"USC00505896","1965-09-15",62.06,44.06,0.00,0.00,0.00
"USC00505896","1965-09-16",64.04,46.04,0.00,0.00,0.00
"USC00505896","1965-09-17",53.96,48.02,89.00,0.00,0.00
"USC00505896","1965-09-18",64.04,48.92,97.00,0.00,0.00
"USC00505896","1965-09-19",60.08,48.92,91.00,0.00,0.00
"USC00505896","1965-09-20",57.92,46.04,0.00,0.00,0.00
"USC00505896","1965-09-21",64.94,44.96,135.00,0.00,0.00
"USC00505896","1965-09-22",68.00,44.96,0.00,0.00,0.00
"USC00505896","1965-09-23",62.96,50.00,76.00,0.00,0.00
"USC00505896","1965-09-24",55.04,48.92,23.00,0.00,0.00
"USC00505896","1965-09-25",62.96,48.02,0.00,0.00,0.00
"USC00505896","1965-09-26",57.92,48.02,25.00,0.00,0.00
"USC00505896","1965-09-27",48.02,39.92,185.00,0.00,0.00
"USC00505896","1965-09-28",46.94,28.04,0.00,0.00,0.00
"USC00505896","1965-09-29",46.04,32.00,0.00,0.00,0.00
"USC00505896","1965-09-30",37.94,33.98,84.00,38.00,0.00
"USC00505896","1965-10-01",44.96,33.08,0.00,0.00,0.00
"USC00505896","1965-10-02",53.96,32.00,0.00,0.00,0.00
"USC00505896","1965-10-03",53.96,37.94,0.00,0.00,0.00
"USC00505896","1965-10-04",48.02,26.96,0.00,0.00,0.00
"USC00505896","1965-10-05",46.04,35.96,0.00,0.00,0.00
"USC00505896","1965-10-06",44.96,32.00,241.00,292.00,305.00
"USC00505896","1965-10-07",33.08,30.02,23.00,13.00,178.00
"USC00505896","1965-10-08",30.92,24.08,137.00,267.00,432.00
"USC00505896","1965-10-09",28.04,15.98,15.00,8.00,305.00
"USC00505896","1965-10-10",33.08,28.04,48.00,66.00,330.00
"USC00505896","1965-10-11",37.94,28.04,33.00,71.00,203.00
"USC00505896","1965-10-12",37.94,24.08,0.00,0.00,178.00
"USC00505896","1965-10-13",33.98,24.98,58.00,71.00,178.00
"USC00505896","1965-10-14",28.04,5.00,0.00,0.00,152.00
"USC00505896","1965-10-15",21.02,-0.94,0.00,0.00,152.00
"USC00505896","1965-10-16",33.08,5.00,0.00,0.00,127.00
"USC00505896","1965-10-17",32.00,3.92,0.00,0.00,127.00
"USC00505896","1965-10-18",26.96,5.00,0.00,0.00,127.00
"USC00505896","1965-10-19",24.08,5.00,0.00,0.00,127.00
"USC00505896","1965-10-20",32.00,3.02,0.00,0.00,102.00
"USC00505896","1965-10-21",30.02,10.04,0.00,0.00,102.00
"USC00505896","1965-10-22",30.92,10.04,0.00,0.00,102.00
"USC00505896","1965-10-23",33.98,24.98,0.00,0.00,102.00
"USC00505896","1965-10-24",37.94,21.92,0.00,0.00,76.00
"USC00505896","1965-10-25",35.06,24.08,71.00,36.00,102.00
"USC00505896","1965-10-26",26.96,15.08,0.00,0.00,102.00
"USC00505896","1965-10-27",30.92,17.06,0.00,0.00,76.00
"USC00505896","1965-10-28",30.02,15.08,0.00,0.00,76.00
"USC00505896","1965-10-29",46.04,17.96,0.00,0.00,76.00
"USC00505896","1965-10-30",32.00,12.02,0.00,0.00,76.00
"USC00505896","1965-10-31",30.02,12.92,0.00,0.00,76.00
"USC00505896","1965-11-01",30.02,8.96,3.00,8.00,76.00
"USC00505896","1965-11-02",30.02,6.98,0.00,0.00,76.00
"USC00505896","1965-11-03",21.02,5.00,0.00,0.00,76.00
"USC00505896","1965-11-04",24.08,5.00,0.00,0.00,76.00
"USC00505896","1965-11-05",26.06,3.92,0.00,0.00,76.00
"USC00505896","1965-11-06",21.92,3.92,0.00,0.00,76.00
"USC00505896","1965-11-07",26.96,6.98,0.00,0.00,76.00
"USC00505896","1965-11-08",26.06,8.06,0.00,0.00,76.00
"USC00505896","1965-11-09",23.00,6.08,0.00,0.00,76.00
"USC00505896","1965-11-10",17.96,6.08,0.00,0.00,76.00
"USC00505896","1965-11-11",23.00,3.92,0.00,0.00,76.00
"USC00505896","1965-11-12",30.02,21.02,0.00,0.00,76.00
"USC00505896","1965-11-13",26.06,19.04,0.00,0.00,76.00
"USC00505896","1965-11-14",42.08,21.92,15.00,5.00,76.00
"USC00505896","1965-11-15",39.02,15.08,5.00,10.00,76.00
"USC00505896","1965-11-16",26.06,10.94,0.00,0.00,76.00
"USC00505896","1965-11-17",21.02,5.00,0.00,0.00,76.00
"USC00505896","1965-11-18",23.00,8.96,0.00,0.00,76.00
"USC00505896","1965-11-19",26.06,15.98,0.00,0.00,76.00
"USC00505896","1965-11-20",26.06,1.04,0.00,0.00,76.00
"USC00505896","1965-11-21",14.00,-5.98,0.00,0.00,76.00
"USC00505896","1965-11-22",6.08,-7.96,0.00,0.00,76.00
"USC00505896","1965-11-23",10.04,-5.98,0.00,0.00,76.00
"USC00505896","1965-11-24",17.96,10.04,71.00,122.00,203.00
"USC00505896","1965-11-25",24.08,12.02,97.00,132.00,330.00
"USC00505896","1965-11-26",24.08,14.00,71.00,114.00,406.00
"USC00505896","1965-11-27",37.94,19.94,66.00,38.00,305.00
"USC00505896","1965-11-28",30.02,15.98,0.00,0.00,279.00
"USC00505896","1965-11-29",46.04,28.04,0.00,0.00,254.00
"USC00505896","1965-11-30",35.96,21.92,0.00,0.00,229.00
"USC00505896","1965-12-01",32.00,5.00,0.00,0.00,203.00
"USC00505896","1965-12-02",15.98,3.02,0.00,0.00,203.00
"USC00505896","1965-12-03",10.04,-4.00,0.00,0.00,203.00
"USC00505896","1965-12-04",8.06,-7.96,0.00,0.00,203.00
"USC00505896","1965-12-05",15.98,-5.98,0.00,0.00,203.00
"USC00505896","1965-12-06",15.98,8.06,0.00,0.00,203.00
"USC00505896","1965-12-07",21.02,8.06,5.00,18.00,229.00
"USC00505896","1965-12-08",17.96,6.98,0.00,0.00,229.00
"USC00505896","1965-12-09",26.96,6.98,51.00,25.00,254.00
"USC00505896","1965-12-10",33.08,10.04,0.00,0.00,229.00
"USC00505896","1965-12-11",42.08,19.94,0.00,0.00,203.00
"USC00505896","1965-12-12",28.04,19.94,0.00,0.00,203.00
"USC00505896","1965-12-13",44.96,26.06,86.00,33.00,203.00
"USC00505896","1965-12-14",42.98,28.04,122.00,216.00,406.00
"USC00505896","1965-12-15",35.06,15.98,0.00,0.00,406.00
"USC00505896","1965-12-16",19.94,-9.04,10.00,38.00,432.00
"USC00505896","1965-12-17",-5.08,-20.92,0.00,0.00,406.00
"USC00505896","1965-12-18",-0.04,-20.02,18.00,46.00,457.00
"USC00505896","1965-12-19",14.00,-2.02,5.00,28.00,483.00
"USC00505896","1965-12-20",19.04,8.06,122.00,343.00,838.00
"USC00505896","1965-12-21",8.06,-20.02,5.00,20.00,838.00
"USC00505896","1965-12-22",-7.96,-22.00,0.00,0.00,762.00
"USC00505896","1965-12-23",-11.92,-20.92,0.00,0.00,686.00
"USC00505896","1965-12-24",1.94,-22.00,0.00,0.00,610.00
"USC00505896","1965-12-25",12.02,-11.02,0.00,0.00,559.00
"USC00505896","1965-12-26",15.08,6.08,0.00,0.00,457.00
"USC00505896","1965-12-27",12.02,-0.04,0.00,0.00,432.00
"USC00505896","1965-12-28",19.94,-0.04,0.00,0.00,406.00
"USC00505896","1965-12-29",10.94,-11.02,0.00,0.00,406.00
"USC00505896","1965-12-30",3.92,-9.94,0.00,0.00,406.00
"USC00505896","1965-12-31",6.08,-5.98,8.00,30.00,432.00
"USC00505896","1966-01-01",8.06,-14.98,0.00,0.00,432.00
"USC00505896","1966-01-02",-0.94,-14.98,0.00,0.00,432.00
"USC00505896","1966-01-03",-2.02,-11.92,0.00,0.00,406.00
"USC00505896","1966-01-04",6.98,-16.06,0.00,0.00,406.00
"USC00505896","1966-01-05",5.00,-9.94,0.00,0.00,406.00
"USC00505896","1966-01-06",3.92,-14.98,0.00,0.00,406.00
"USC00505896","1966-01-07",10.04,-0.94,0.00,0.00,406.00
"USC00505896","1966-01-08",12.02,-2.02,0.00,0.00,381.00
"USC00505896","1966-01-09",17.96,1.04,0.00,0.00,381.00
"USC00505896","1966-01-10",17.06,-5.98,33.00,79.00,457.00
"USC00505896","1966-01-11",-0.04,-18.04,0.00,0.00,457.00
"USC00505896","1966-01-12",-9.04,-18.94,0.00,0.00,432.00
"USC00505896","1966-01-13",-2.02,-18.94,0.00,0.00,432.00
"USC00505896","1966-01-14",10.04,-7.96,0.00,0.00,432.00
"USC00505896","1966-01-15",19.04,6.98,0.00,0.00,432.00
"USC00505896","1966-01-16",21.92,14.00,0.00,0.00,432.00
"USC00505896","1966-01-17",19.94,12.02,0.00,0.00,432.00
"USC00505896","1966-01-18",21.02,8.96,0.00,0.00,432.00
"USC00505896","1966-01-19",19.94,14.00,15.00,15.00,432.00
"USC00505896","1966-01-20",21.92,14.00,0.00,0.00,432.00
"USC00505896","1966-01-21",14.00,6.08,0.00,0.00,432.00
"USC00505896","1966-01-22",15.98,3.02,0.00,0.00,432.00
"USC00505896","1966-01-23",26.06,10.94,0.00,0.00,432.00
"USC00505896","1966-01-24",19.94,3.92,0.00,0.00,432.00
"USC00505896","1966-01-25",21.92,3.92,0.00,0.00,432.00
"USC00505896","1966-01-26",26.06,14.00,0.00,0.00,406.00
"USC00505896","1966-01-27",24.08,8.06,0.00,0.00,406.00
"USC00505896","1966-01-28",19.94,-0.04,0.00,0.00,406.00
"USC00505896","1966-01-29",12.02,-5.98,0.00,0.00,406.00
"USC00505896","1966-01-30",12.92,-5.98,0.00,0.00,406.00
"USC00505896","1966-01-31",30.02,12.02,0.00,0.00,406.00
"USC00505896","1966-02-01",39.92,30.02,0.00,0.00,381.00
"USC00505896","1966-02-02",35.06,6.08,0.00,0.00,381.00
"USC00505896","1966-02-03",14.00,-0.94,0.00,0.00,381.00
"USC00505896","1966-02-04",12.02,-4.00,0.00,0.00,381.00
"USC00505896","1966-02-05",15.08,-4.00,23.00,28.00,406.00
"USC00505896","1966-02-06",17.96,15.08,0.00,0.00,406.00
"USC00505896","1966-02-07",21.92,12.92,10.00,15.00,432.00
"USC00505896","1966-02-08",21.92,8.06,0.00,0.00,432.00
"USC00505896","1966-02-09",19.94,3.92,46.00,28.00,432.00
"USC00505896","1966-02-10",32.00,17.96,46.00,28.00,483.00
"USC00505896","1966-02-11",42.98,15.98,0.00,0.00,406.00
"USC00505896","1966-02-12",42.08,24.08,0.00,0.00,406.00
"USC00505896","1966-02-13",32.00,10.04,0.00,0.00,406.00
"USC00505896","1966-02-14",30.02,14.00,0.00,0.00,406.00
"USC00505896","1966-02-15",30.02,21.92,0.00,0.00,406.00
"USC00505896","1966-02-16",30.02,15.98,0.00,0.00,406.00
"USC00505896","1966-02-17",24.08,15.98,0.00,0.00,406.00
"USC00505896","1966-02-18",23.00,6.08,0.00,0.00,406.00
"USC00505896","1966-02-19",19.94,-5.98,0.00,0.00,406.00
"USC00505896","1966-02-20",17.96,-5.98,0.00,0.00,406.00
"USC00505896","1966-02-21",14.00,-14.08,0.00,0.00,406.00
"USC00505896","1966-02-22",8.06,-14.08,0.00,0.00,406.00
"USC00505896","1966-02-23",14.00,-14.08,0.00,0.00,381.00
"USC00505896","1966-02-24",23.00,-0.04,61.00,38.00,406.00
"USC00505896","1966-02-25",32.00,17.06,0.00,0.00,406.00
"USC00505896","1966-02-26",24.08,15.98,0.00,0.00,406.00
"USC00505896","1966-02-27",26.06,6.08,53.00,64.00,457.00
"USC00505896","1966-02-28",21.92,1.94,0.00,0.00,381.00
"USC00505896","1966-03-01",19.94,-2.92,0.00,0.00,381.00
"USC00505896","1966-03-02",17.06,-7.96,0.00,0.00,381.00
"USC00505896","1966-03-03",24.98,1.94,0.00,0.00,381.00
"USC00505896","1966-03-04",35.06,8.96,0.00,0.00,381.00
"USC00505896","1966-03-05",32.00,-0.04,0.00,0.00,381.00
"USC00505896","1966-03-06",30.92,14.00,0.00,0.00,381.00
"USC00505896","1966-03-07",26.06,6.08,0.00,0.00,381.00
"USC00505896","1966-03-08",23.00,-5.08,0.00,0.00,356.00
"USC00505896","1966-03-09",10.04,-2.02,0.00,0.00,356.00
"USC00505896","1966-03-10",6.98,-20.02,0.00,0.00,356.00
"USC00505896","1966-03-11",6.08,-18.04,0.00,0.00,356.00
"USC00505896","1966-03-12",14.00,1.04,53.00,43.00,406.00
"USC00505896","1966-03-13",14.00,-4.00,0.00,0.00,406.00
"USC00505896","1966-03-14",10.94,-11.92,10.00,13.00,406.00
"USC00505896","1966-03-15",12.92,-18.04,0.00,0.00,406.00
"USC00505896","1966-03-16",15.08,-7.96,10.00,10.00,432.00
"USC00505896","1966-03-17",21.92,-14.08,0.00,0.00,432.00